Theta_e
345 346 346 349 348 350 351 351 351 351 350 350 351 350 350 350 350 349 349 349 349 350 350 350 350 350 350 350 349 349 349 349 349 348 348 349 349 349 349 349 348 348 348 348 348 348 347 347 347 347 346 347 347 347 347 347 348 347 348 348 348 348 348 347 347 346 347 347 347 348 346 347 348 348 348 348 348 347 347 346 343 340 342 342 343
345 347 348 347 350 350 351 351 350 350 350 350 349 349 349 350 349 349 349 349 349 350 349 349 349 349 349 349 349 349 348 349 349 348 348 348 349 348 348 347 347 347 348 348 348 347 347 346 346 346 346 346 346 346 346 347 347 347 348 348 347 348 348 348 348 347 346 345 346 346 347 347 347 347 348 348 347 347 347 346 344 342 340 342 343
346 348 348 348 350 350 350 350 350 349 349 348 348 347 348 349 349 349 349 349 349 349 349 349 349 349 349 348 348 348 348 348 348 348 347 347 347 347 347 347 347 347 347 347 347 347 346 346 346 346 346 345 346 346 346 346 347 347 347 347 347 347 347 348 348 347 345 344 344 344 344 347 347 346 346 346 347 346 346 346 346 345 340 344 343
345 346 347 349 350 349 349 350 350 349 349 348 347 347 347 348 348 348 348 348 348 348 349 349 349 348 348 348 348 347 347 347 347 347 347 345 345 345 345 346 346 346 347 346 347 346 346 345 345 345 345 345 346 346 346 346 347 346 346 346 347 346 347 347 347 344 345 342 341 340 342 344 345 344 345 346 346 346 346 346 345 346 345 345 344
346 347 349 348 348 348 349 349 349 349 349 348 347 346 346 347 348 348 348 348 348 348 348 348 348 348 347 348 348 347 347 347 347 346 346 345 345 345 345 345 345 345 345 346 346 345 345 345 346 346 346 345 346 346 346 346 346 346 346 346 346 345 345 345 345 345 347 344 341 338 340 342 344 345 344 344 346 346 346 345 345 345 346 345 344
343 346 348 349 348 347 348 348 348 347 348 348 348 346 346 346 348 348 348 348 347 347 347 347 347 347 347 347 347 346 346 346 346 346 346 345 345 345 345 345 345 345 345 345 345 345 345 345 346 346 346 346 346 346 346 346 346 347 346 345 345 346 346 345 344 344 345 345 342 343 339 343 344 344 344 344 344 344 344 344 344 344 345 344 344
346 347 348 348 347 348 347 347 347 348 348 348 348 348 348 347 347 348 348 347 347 347 347 347 347 346 346 346 346 346 345 345 345 345 345 345 345 345 345 345 345 345 345 345 345 344 344 344 345 345 344 345 346 346 346 346 346 346 345 345 346 345 346 344 344 344 343 342 341 341 345 342 342 343 344 344 343 344 344 344 344 344 345 344 344
348 348 348 347 347 347 346 346 347 348 348 348 347 347 347 347 347 347 347 346 346 346 346 346 346 346 346 346 346 345 345 345 344 345 345 345 345 345 345 345 345 345 345 346 345 344 345 345 345 345 345 345 345 346 346 346 345 346 346 345 345 346 344 343 344 342 341 339 339 340 341 342 342 342 343 344 344 345 345 344 344 344 344 344 345
346 348 348 347 347 347 347 346 348 348 347 347 347 347 347 346 346 346 346 346 346 345 345 345 345 345 345 345 345 345 344 344 344 345 345 346 346 346 346 346 345 345 345 345 346 345 346 345 345 345 345 346 345 346 345 345 346 346 345 345 346 345 343 342 342 342 339 338 340 341 342 341 341 341 343 344 344 344 344 343 343 343 343 345 345
345 345 345 345 346 347 346 347 347 347 347 347 346 347 346 346 346 346 345 346 345 345 345 345 345 345 345 344 344 344 345 345 345 346 346 346 347 347 347 347 347 346 346 346 346 346 346 346 346 346 346 346 345 346 346 346 346 345 345 346 346 345 342 339 341 342 339 340 342 342 340 343 340 341 343 343 343 343 343 344 344 344 344 344 344
344 346 345 346 347 347 346 347 347 346 347 346 347 347 346 346 347 346 345 345 345 345 345 345 345 344 344 344 344 344 345 345 345 346 345 345 345 346 346 346 347 347 348 347 347 346 346 346 346 347 347 346 346 346 346 346 346 345 346 346 346 345 344 341 340 339 342 340 341 341 341 344 340 341 343 343 344 343 344 343 343 343 343 344 344
344 346 345 346 347 347 346 347 346 347 347 346 346 345 345 345 345 346 346 345 345 345 345 344 344 344 343 343 343 343 343 343 343 344 344 344 345 345 346 347 346 346 346 346 347 347 348 347 346 347 347 346 345 346 346 346 346 346 346 345 345 344 344 340 340 341 340 341 339 340 340 340 341 341 343 344 345 344 344 343 343 343 342 342 344
344 344 344 346 347 347 347 347 347 346 346 345 345 345 345 346 345 345 345 345 344 345 344 344 344 343 343 343 342 342 342 342 343 343 343 344 344 344 345 346 347 346 345 345 345 345 346 347 347 347 346 346 346 346 346 346 346 346 345 344 344 343 342 342 340 339 341 341 340 340 340 340 341 343 343 344 344 343 343 343 342 342 343 343 342
343 344 344 344 346 349 347 347 346 345 345 345 345 345 345 346 345 345 345 345 344 344 344 344 344 343 343 342 342 342 341 341 342 342 342 342 342 343 343 344 346 346 345 345 344 344 345 346 346 347 347 346 346 345 346 346 346 346 345 344 342 342 344 341 340 340 340 336 339 340 340 341 340 343 343 343 343 344 343 343 342 342 343 342 342
343 345 344 344 345 345 348 346 346 345 344 345 345 344 345 345 344 344 344 345 344 344 344 344 343 343 342 342 342 342 342 342 342 341 340 339 339 341 342 342 343 344 345 345 344 343 344 347 346 345 346 347 346 345 346 346 346 346 345 343 343 343 343 342 338 337 338 337 337 339 339 339 343 344 344 344 343 343 344 343 343 343 342 343 343
345 344 344 344 344 345 345 347 345 345 345 344 344 345 345 345 345 345 344 344 344 343 343 343 343 343 343 342 342 341 341 340 340 340 339 337 338 339 341 341 341 342 343 343 343 342 343 345 347 346 346 347 347 346 346 345 345 346 344 343 341 342 341 342 336 336 334 334 337 338 338 340 343 343 343 344 344 344 344 343 343 341 343 341 342
344 343 343 343 344 344 344 344 345 345 345 345 345 345 345 344 345 344 344 344 345 344 343 343 343 343 343 341 340 340 339 337 336 336 336 337 336 338 339 339 339 340 341 342 342 342 342 343 345 348 348 347 346 346 346 345 344 344 346 344 343 341 341 344 336 332 334 337 337 337 337 339 341 341 342 342 343 343 343 344 343 342 341 342 341
343 343 340 341 343 343 345 344 344 344 344 344 345 345 345 344 344 344 344 345 345 345 344 343 342 341 339 338 339 339 339 338 336 334 333 335 335 337 338 338 338 338 338 339 340 341 341 341 343 346 348 348 348 348 347 345 345 345 347 347 345 342 341 338 336 333 335 338 336 339 338 341 342 341 342 342 341 341 342 342 341 340 342 341 342
340 342 343 342 344 346 343 344 343 344 343 344 344 342 344 344 344 344 343 343 343 343 343 340 338 336 336 336 337 338 339 338 336 335 332 333 334 333 336 336 336 336 336 338 338 339 340 340 341 344 347 348 347 346 344 343 345 346 345 347 340 337 338 337 330 331 333 333 334 335 335 340 340 340 341 341 341 341 341 340 341 342 340 339 339
340 339 339 341 344 343 342 343 343 345 345 344 345 344 344 344 343 343 342 342 341 341 340 339 337 336 335 335 337 340 337 335 334 332 331 330 333 333 333 335 335 335 335 335 336 337 337 339 341 344 347 348 348 348 344 345 343 346 347 347 340 337 334 329 328 329 331 333 334 334 338 338 338 338 338 338 338 338 339 339 339 339 338 338 338
339 338 338 339 342 342 342 341 343 345 343 343 345 342 342 343 342 340 338 338 337 336 336 336 334 335 337 335 335 342 336 334 333 333 331 330 331 331 331 331 334 333 334 334 333 335 335 336 340 344 347 348 349 347 345 341 345 344 345 346 346 330 329 327 327 330 330 332 334 334 338 337 336 336 337 337 337 338 337 336 336 336 336 337 337
336 336 339 340 341 342 341 340 342 344 344 343 340 341 342 340 338 339 338 337 336 337 337 338 341 338 338 342 338 338 344 330 335 328 339 335 329 330 327 329 332 333 333 334 335 332 334 334 335 344 348 348 348 343 343 340 341 345 346 345 332 330 329 328 328 328 331 331 333 334 337 337 336 336 336 336 336 337 336 336 336 336 336 337 337
333 335 339 340 340 342 341 340 341 343 344 340 340 341 339 338 336 336 338 338 339 340 338 338 331 332 331 332 337 335 335 331 338 331 336 328 330 330 330 328 332 332 330 330 331 335 333 333 337 341 348 349 346 338 338 338 342 341 344 347 329 329 328 328 328 328 330 331 331 336 336 336 336 336 335 336 336 336 336 336 336 336 336 337 337
334 336 337 339 340 341 340 340 340 343 340 342 338 338 339 341 340 340 341 336 343 334 333 333 331 335 338 341 334 333 336 339 327 328 328 335 331 332 332 331 331 335 329 331 332 332 340 334 338 341 346 346 334 335 336 337 342 341 343 330 329 330 329 328 328 329 329 331 331 336 335 334 334 334 334 334 335 335 334 335 335 335 335 335 336
335 337 336 336 337 341 341 341 341 342 340 339 339 340 337 340 340 336 331 335 333 331 334 332 335 330 336 336 332 340 335 329 332 329 335 333 332 334 332 332 337 333 332 335 334 327 333 325 324 339 338 340 334 333 336 339 341 340 335 331 330 332 329 329 329 330 331 331 331 335 335 335 334 334 334 334 334 334 334 335 334 335 335 334 334
336 335 336 335 337 340 342 340 342 340 338 339 335 335 338 333 334 338 334 337 333 338 332 331 329 331 330 328 343 334 336 332 334 333 328 331 328 329 333 329 336 333 330 332 331 328 336 333 330 326 331 330 331 332 332 336 338 332 331 331 332 332 330 330 330 331 332 332 332 335 336 336 335 335 335 334 334 334 334 334 334 334 334 334 334
334 334 337 337 339 339 340 340 339 341 335 338 335 337 338 333 331 335 328 328 335 329 328 328 331 332 332 330 331 332 329 331 334 330 329 328 328 326 329 337 334 331 328 336 332 331 328 326 331 333 332 330 329 327 330 328 332 328 330 330 330 330 329 329 330 331 333 334 336 337 337 337 337 336 335 334 334 334 334 333 333 334 334 334 333
333 335 336 338 337 338 340 339 338 339 342 335 333 329 330 330 336 336 330 342 334 330 331 330 333 336 335 332 333 325 328 327 324 328 325 328 327 328 328 325 325 329 334 328 328 330 329 334 328 324 327 328 328 328 328 328 329 329 329 330 327 327 328 328 329 331 333 334 335 338 339 338 337 336 336 336 335 334 333 333 333 333 334 333 333
333 335 337 337 338 337 337 338 338 338 335 333 329 329 336 332 328 331 331 329 330 332 339 334 330 328 330 328 329 329 324 325 324 323 326 327 326 329 329 325 325 325 329 328 328 331 338 337 332 326 334 324 327 332 327 327 328 329 329 328 325 326 326 327 328 331 332 332 333 335 338 337 337 336 336 336 335 335 334 333 333 333 333 333 333
334 335 335 337 337 335 333 336 339 337 338 332 329 327 329 331 330 330 340 331 330 337 335 327 326 330 329 332 329 329 330 324 324 326 321 326 326 327 329 330 328 326 328 327 327 328 327 326 327 325 322 323 323 331 331 325 325 326 326 325 324 323 325 326 328 330 330 331 331 331 335 335 334 333 334 335 336 335 335 334 334 333 333 332 332
335 334 336 336 337 336 331 332 331 335 332 331 332 333 335 331 329 333 332 330 332 334 329 331 330 331 331 331 329 329 330 325 325 329 324 324 324 326 324 326 328 328 326 326 328 328 328 326 323 324 323 323 325 329 327 327 324 324 330 325 322 321 323 327 328 329 329 329 329 329 330 333 332 331 330 330 331 332 332 332 332 332 331 332 331
333 332 334 335 336 334 333 330 332 335 338 333 331 329 330 331 331 331 331 333 336 330 326 327 328 331 329 331 333 330 329 329 328 324 325 322 322 324 326 327 326 329 328 328 330 327 323 321 329 329 326 328 327 326 325 323 323 322 320 322 320 320 319 323 326 328 329 328 327 327 327 327 330 329 328 327 327 327 327 328 328 328 328 327 327
331 333 332 333 333 332 332 334 335 333 334 329 331 327 338 326 331 331 332 333 334 330 328 326 329 329 332 332 331 328 328 324 330 324 325 319 323 324 323 325 325 330 330 327 328 328 334 327 328 328 328 326 324 323 324 325 324 324 324 324 320 319 319 319 321 323 328 327 327 327 326 325 323 327 326 324 323 322 322 322 323 323 323 324 324
329 331 333 332 333 334 332 333 334 330 330 329 331 330 331 329 331 332 332 332 327 327 332 332 332 330 329 331 329 325 326 327 323 325 323 324 322 322 324 323 325 326 331 326 328 326 327 327 327 330 328 325 324 328 327 324 322 322 322 324 320 325 322 318 320 320 320 320 323 324 323 322 321 319 320 321 320 319 318 318 318 318 319 320 319
330 330 329 330 333 332 332 329 332 332 331 327 328 333 331 327 329 332 333 329 332 335 333 331 333 330 327 327 329 327 324 324 324 325 323 323 321 321 321 322 324 324 323 324 332 326 326 324 327 322 322 321 319 321 322 324 323 321 324 324 321 319 321 319 320 319 319 320 319 319 320 319 320 317 317 315 318 318 317 316 315 315 315 316 316
330 330 330 331 329 330 331 329 330 328 329 331 332 334 333 330 329 328 331 334 337 332 336 332 330 333 329 327 326 326 321 323 325 324 324 321 320 321 324 326 326 325 326 325 328 324 326 325 325 329 329 318 319 319 321 321 321 321 321 321 321 323 320 319 317 316 317 317 317 317 316 315 316 317 322 315 314 316 317 315 314 314 313 313 313
331 330 330 330 328 328 331 329 328 328 331 327 326 330 330 327 329 331 326 334 334 335 336 332 329 327 326 326 327 326 321 321 323 324 324 321 321 320 323 326 327 327 325 327 325 327 326 325 326 326 326 320 317 315 318 321 322 321 320 319 318 319 317 316 316 316 316 315 316 315 315 315 318 323 316 315 315 314 317 315 314 313 313 311 311
331 331 331 329 327 327 329 329 330 326 331 331 331 332 329 328 330 329 334 330 331 331 332 328 329 328 326 325 325 324 324 321 322 322 324 321 320 321 322 323 324 326 327 325 325 325 326 327 324 323 324 318 316 316 317 318 318 317 317 317 320 321 319 318 319 321 313 312 315 312 313 315 312 310 313 310 308 311 314 314 315 314 312 312 311
330 331 330 329 327 327 328 330 328 327 331 328 333 331 331 331 332 330 333 334 328 329 331 329 331 330 328 324 323 324 322 323 322 322 321 321 320 322 324 323 323 324 325 324 323 325 327 326 324 321 320 318 318 317 316 317 313 313 314 315 318 317 321 320 321 318 313 312 314 314 311 312 308 309 310 309 310 310 309 312 311 308 309 312 310
329 329 328 327 327 327 327 329 327 328 330 332 326 324 327 325 324 330 328 330 327 329 331 327 328 329 326 326 324 325 319 321 321 322 323 322 322 323 322 321 322 321 322 322 323 324 324 324 324 322 322 318 321 317 316 316 314 314 317 315 316 315 314 316 314 310 316 310 310 312 308 308 309 310 307 308 310 308 310 309 311 305 309 311 311
329 329 327 325 324 324 327 325 326 329 327 323 323 322 322 324 325 325 327 331 328 328 328 328 327 327 327 325 329 324 320 319 317 318 322 321 323 323 322 320 320 322 323 322 324 325 324 324 322 324 323 320 317 318 315 318 314 314 321 315 320 317 317 315 309 310 307 309 312 311 311 311 307 309 307 313 307 308 310 306 305 306 304 307 308
327 327 327 325 325 325 325 325 326 327 328 324 324 326 324 324 328 323 323 325 325 326 325 328 328 325 328 328 327 327 319 320 320 320 320 318 319 320 320 323 321 321 322 323 324 325 325 325 328 324 319 318 316 316 318 318 315 312 310 313 312 318 317 316 310 306 306 305 306 307 309 303 305 306 312 310 308 305 304 307 305 305 305 305 305
325 325 325 326 325 326 327 325 324 325 327 328 330 330 330 329 330 328 327 325 332 329 324 327 330 324 329 326 326 324 321 314 315 320 316 317 320 322 320 321 321 323 322 321 321 321 323 323 325 326 317 315 316 318 319 319 313 316 315 310 308 307 313 314 312 308 304 304 304 303 304 302 302 305 308 307 306 306 306 304 306 305 305 305 304
326 324 325 325 324 326 326 326 324 325 327 328 333 331 329 331 335 334 332 330 326 328 329 330 327 325 325 326 327 325 320 315 312 312 314 318 320 320 320 322 322 323 320 320 319 319 322 322 322 319 316 316 312 313 314 318 315 313 311 313 312 308 304 307 310 306 304 304 302 300 301 301 301 303 306 303 304 305 308 305 307 306 306 308 307
323 323 324 323 321 323 325 326 323 325 328 327 333 330 330 332 329 330 330 328 329 328 326 328 326 328 328 326 324 324 320 315 318 316 315 317 321 322 321 320 319 320 321 319 318 319 316 318 318 319 316 317 311 315 312 312 316 318 312 311 310 313 304 306 306 308 305 300 300 300 305 302 300 301 303 301 305 303 304 304 306 306 307 307 306
323 324 324 324 324 323 323 325 324 326 327 326 332 330 331 328 329 325 323 325 325 325 326 324 326 326 321 326 326 323 321 319 316 316 315 319 322 321 321 315 319 320 318 316 318 319 318 315 317 318 317 317 318 312 311 314 316 319 316 318 311 304 305 303 306 305 310 310 304 301 302 301 302 302 303 300 301 303 305 302 308 306 305 305 304
323 324 324 325 323 323 323 324 326 326 327 326 329 330 328 329 326 324 325 324 323 326 329 329 328 324 327 326 328 331 323 324 324 318 320 320 321 322 322 319 316 317 320 318 315 313 312 312 315 315 315 318 319 315 314 312 319 312 312 311 311 313 311 306 301 303 304 306 311 305 299 300 300 301 300 299 300 305 303 304 302 301 303 304 303
326 324 325 324 325 324 323 324 326 325 323 326 325 328 327 329 327 325 325 325 325 327 327 330 330 329 330 327 328 330 326 326 325 321 319 319 322 319 321 321 318 315 316 315 314 315 314 315 316 317 317 316 315 314 313 312 311 309 313 312 313 308 305 308 306 302 301 302 304 304 302 301 302 303 302 301 302 302 304 306 301 301 303 303 303
325 326 324 324 324 323 324 324 325 325 322 326 323 323 328 327 327 326 326 327 326 328 328 327 329 330 329 329 327 327 329 330 329 322 321 321 322 317 318 318 318 315 313 313 314 311 313 314 315 314 314 314 314 315 312 310 309 308 311 309 309 307 306 304 304 304 304 300 301 302 301 301 305 305 306 304 300 302 303 306 304 302 306 304 302
328 330 327 325 324 323 324 323 325 324 324 324 325 324 325 327 327 327 325 326 326 326 326 326 328 330 327 328 329 329 326 329 328 327 324 321 321 321 313 310 313 311 311 311 313 314 314 313 315 315 314 313 313 312 312 311 311 311 309 309 308 307 306 304 303 301 303 302 299 299 299 299 300 305 308 301 302 300 300 303 302 300 300 304 302
328 328 326 323 323 324 325 323 324 323 326 324 323 324 325 325 324 325 324 324 322 324 325 324 326 327 326 325 328 331 330 327 329 333 323 319 322 322 317 313 317 324 317 313 316 312 313 314 314 313 313 313 313 312 312 312 311 310 307 307 305 305 304 305 302 304 303 302 300 299 299 298 297 299 300 301 301 300 300 300 300 300 300 301 301
Wind_Speed
5 9 8 8 9 10 11 11 11 11 11 11 11 10 10 10 10 10 10 10 10 11 11 12 12 12 12 11 12 12 12 12 11 11 11 9 9 9 9 8 8 9 9 9 9 9 9 9 9 9 9 10 10 10 10 9 9 9 9 9 9 8 7 5 5 7 7 9 10 11 11 10 11 11 11 12 12 12 13 12 9 8 6 8 11
6 7 7 8 10 10 11 12 12 11 10 10 10 10 10 10 10 10 10 10 10 11 11 12 11 11 12 12 12 12 12 12 12 11 10 10 10 10 10 10 9 9 9 8 8 9 9 9 9 9 10 10 10 10 9 9 9 9 10 9 8 7 7 6 6 8 8 9 11 12 12 12 11 11 11 11 12 13 14 14 13 8 5 10 10
7 8 8 9 10 10 11 11 10 10 10 10 11 10 10 9 8 10 10 9 10 11 12 11 11 11 11 12 12 12 12 12 12 11 10 10 9 9 9 9 9 9 8 8 8 9 9 9 9 10 10 10 9 9 9 9 9 10 10 9 7 6 5 5 7 9 8 10 14 14 11 12 11 11 11 12 12 13 14 14 14 12 7 13 12
9 8 8 8 10 11 11 11 10 10 9 9 9 9 8 7 8 10 10 10 10 11 11 11 11 11 12 12 12 11 11 11 11 11 10 10 10 10 10 9 9 8 8 8 8 9 9 9 9 9 9 9 9 9 9 9 10 9 8 7 7 6 4 5 8 10 10 14 14 4 1 1 7 11 12 12 12 13 13 13 13 13 13 12 12
8 7 6 7 8 10 11 11 9 8 8 8 9 8 6 6 8 10 10 10 10 10 11 11 11 11 11 11 11 11 11 12 12 11 11 10 10 11 10 10 9 8 8 8 8 8 8 9 9 9 9 9 9 9 9 10 9 9 8 8 7 7 8 8 9 9 10 12 7 2 1 4 4 10 11 12 12 12 12 12 13 12 13 11 11
6 6 5 5 8 9 11 11 11 10 9 8 8 8 6 4 9 10 10 10 11 11 11 11 11 11 11 11 11 12 12 12 12 12 11 11 11 10 10 10 10 9 9 8 8 8 8 9 9 9 9 9 9 9 9 9 9 8 8 9 9 10 11 11 12 13 10 10 7 2 1 0 4 4 11 11 11 13 13 13 12 13 12 10 10
7 5 5 6 7 9 11 11 11 9 10 9 9 9 8 8 10 11 11 11 11 11 11 11 11 11 11 11 12 12 12 12 12 11 11 10 10 10 10 10 9 9 9 8 8 8 8 8 8 8 8 8 8 8 9 9 9 8 9 10 10 13 13 14 14 10 8 7 3 1 0 4 4 3 10 10 10 12 13 13 12 12 12 11 11
6 4 5 6 7 9 11 10 10 10 9 9 8 9 9 10 10 11 11 11 11 11 10 10 11 11 11 12 11 12 11 11 11 11 11 11 10 10 9 9 9 9 8 8 8 9 8 8 8 8 8 8 8 8 9 9 9 9 11 12 12 13 14 15 11 6 7 6 4 3 3 4 5 4 10 10 12 10 9 12 12 13 13 13 12
7 7 6 7 8 11 10 9 9 9 9 9 9 10 10 10 11 11 11 11 10 10 10 11 11 11 11 11 11 11 11 11 12 12 12 11 11 10 10 10 9 9 8 8 8 8 8 8 8 8 8 8 8 8 8 9 8 10 11 13 12 12 15 11 8 9 6 3 2 4 4 3 5 5 8 11 12 12 12 10 10 13 13 14 13
8 8 7 7 8 11 10 9 9 10 10 10 10 10 10 10 10 10 10 10 10 11 11 11 11 11 11 11 11 11 11 12 12 12 12 12 11 11 11 11 10 9 9 8 8 8 8 8 8 8 8 7 8 8 9 8 8 10 12 13 13 12 12 4 7 7 4 3 3 4 7 7 5 5 9 11 12 12 12 13 10 11 10 13 14
9 8 8 9 10 12 10 10 11 10 10 10 10 10 10 10 10 10 10 10 11 11 11 11 11 11 11 11 11 12 12 12 12 13 12 12 12 12 12 11 11 11 10 9 8 8 8 8 8 8 7 7 7 8 9 8 8 10 14 13 13 11 9 6 7 3 4 4 4 4 8 12 7 5 11 12 12 12 11 11 12 12 12 13 13
9 8 8 7 11 13 11 10 11 10 10 10 11 10 10 10 10 10 10 10 10 10 10 11 11 11 11 11 11 12 13 12 12 12 12 12 12 12 12 12 12 11 11 10 9 8 7 7 7 7 6 6 7 7 8 8 8 11 13 11 11 10 10 6 3 2 2 3 5 6 6 6 6 7 11 9 9 10 10 12 12 12 12 12 13
8 9 8 7 8 11 12 12 12 11 10 10 10 10 11 11 10 10 10 10 10 10 10 10 10 10 11 11 12 12 12 12 12 12 12 12 12 12 12 12 12 12 11 11 10 8 7 6 5 6 6 6 6 6 7 7 8 11 10 9 9 9 7 9 3 4 3 2 4 6 5 5 5 10 10 10 10 11 11 11 12 12 12 12 14
8 9 7 8 7 11 11 12 12 12 11 11 10 10 10 10 10 10 10 10 9 9 10 10 10 10 10 11 11 11 12 12 12 12 12 12 12 12 12 12 12 11 11 10 10 9 7 6 4 3 5 5 5 5 5 6 8 8 9 8 6 6 7 5 6 4 5 6 7 7 7 6 6 13 13 11 12 13 12 12 12 13 12 14 13
8 9 9 8 8 8 12 11 12 12 12 11 10 10 10 10 10 10 9 9 9 9 10 10 10 10 10 10 11 11 11 11 12 12 12 12 12 12 12 12 11 11 11 10 9 8 8 7 5 4 4 4 5 5 5 6 6 8 8 5 6 6 5 3 5 6 6 7 6 8 7 6 13 14 15 16 14 16 15 15 13 12 14 14 14
10 9 9 7 7 7 7 11 12 11 11 11 11 10 10 10 9 8 9 9 9 10 10 10 10 10 10 10 11 11 11 11 11 11 12 11 11 11 11 10 10 10 9 9 8 8 7 7 6 5 5 3 3 4 5 5 4 5 6 5 3 4 4 5 4 5 6 6 6 6 7 8 15 14 14 15 15 15 17 16 16 14 16 14 15
9 10 9 7 7 7 6 7 10 13 12 11 10 10 9 9 7 8 9 9 10 10 10 10 10 9 9 9 10 10 10 11 11 11 11 11 11 10 10 9 9 8 8 8 8 8 7 7 6 6 5 4 3 4 5 4 3 2 5 4 5 2 1 4 4 6 7 8 8 8 7 6 14 15 16 16 16 16 17 18 16 16 15 17 16
9 10 10 3 4 5 6 7 7 8 8 9 11 10 9 9 9 9 9 9 9 9 9 9 8 8 7 7 8 9 10 10 11 12 11 10 9 9 9 9 8 8 7 7 7 7 7 6 5 5 6 5 4 4 3 4 4 3 2 6 4 3 2 7 2 8 8 10 9 7 6 14 19 18 19 20 19 20 19 20 20 18 18 17 17
9 7 8 8 5 5 7 6 4 5 6 6 5 7 10 10 9 9 9 9 9 8 8 8 7 8 6 5 6 7 8 10 11 11 10 9 9 8 8 7 7 7 6 6 6 6 5 5 4 5 5 6 5 4 3 3 4 5 3 6 13 11 12 7 9 8 8 7 7 7 8 18 18 19 19 19 20 20 20 19 20 21 21 20 20
9 8 5 6 4 5 5 6 5 5 4 5 6 6 8 10 9 9 8 8 8 8 8 7 7 6 5 4 6 6 5 6 7 8 9 7 7 6 6 6 5 5 5 4 4 5 5 4 4 4 6 7 6 4 1 1 3 6 8 10 9 8 4 5 8 9 7 8 8 6 13 17 18 18 18 19 19 20 20 20 20 20 20 20 20
7 5 5 3 3 5 6 3 3 4 6 5 5 6 7 9 7 8 8 8 7 8 9 9 7 6 5 3 2 2 6 5 4 3 7 3 4 5 4 4 3 4 4 3 2 3 4 4 4 4 6 7 7 5 1 1 4 5 7 6 1 6 7 8 8 7 7 6 7 8 17 17 17 18 18 18 19 19 19 19 19 19 20 20 20
6 6 5 4 5 4 5 3 1 3 5 3 4 5 5 7 7 6 4 5 6 6 6 5 8 4 4 1 3 3 1 5 3 4 1 2 2 4 1 0 1 2 4 5 5 1 2 2 2 4 8 8 8 3 1 1 2 3 6 10 3 5 7 7 6 7 7 6 7 11 18 17 17 17 18 18 18 19 18 18 18 18 18 19 19
7 6 5 4 3 3 6 3 2 3 4 6 5 6 8 5 6 5 4 5 6 8 1 4 7 4 6 4 4 4 3 5 1 2 1 0 3 3 3 1 4 3 3 4 6 7 4 4 6 5 8 10 6 2 2 2 1 3 4 2 6 6 8 8 7 6 7 7 6 15 17 17 17 17 17 17 17 17 18 17 17 18 18 18 18
6 6 7 4 3 1 3 3 3 6 3 2 3 4 3 2 3 2 4 5 2 5 4 5 4 4 2 2 5 3 3 3 6 5 3 4 4 5 7 5 5 7 4 4 6 8 7 6 7 9 6 5 3 2 2 2 2 0 1 4 5 5 7 6 6 6 6 8 7 17 16 17 16 16 16 16 17 17 16 17 18 18 17 17 17
7 6 8 6 4 3 2 3 4 2 3 3 3 2 3 2 2 3 5 3 4 5 4 4 4 6 3 2 3 0 2 4 3 4 2 3 1 2 4 3 2 2 7 2 3 4 5 3 4 7 5 6 3 3 2 2 2 1 2 5 5 3 7 7 7 7 6 5 6 16 16 16 16 16 16 16 17 15 17 18 16 17 17 16 17
8 6 7 9 6 4 4 4 2 3 4 2 4 4 4 3 3 2 2 1 3 3 5 5 4 5 5 4 1 3 2 3 2 2 4 3 4 5 2 4 0 2 5 3 3 4 2 2 2 4 9 5 6 5 5 4 2 3 6 8 5 4 6 7 7 6 6 5 8 17 17 17 16 17 16 16 16 17 17 16 16 17 17 17 17
6 8 5 5 4 5 4 4 3 2 1 3 3 2 2 4 4 3 4 4 4 6 5 5 4 3 3 4 5 3 4 3 2 3 3 4 3 5 4 1 2 3 4 2 3 3 4 5 3 1 1 1 4 5 4 5 2 8 7 7 5 7 7 7 7 7 6 7 10 18 17 18 17 17 16 15 15 16 16 16 16 17 17 17 17
8 8 7 6 4 6 4 4 3 3 1 2 4 3 4 3 3 3 4 1 3 4 4 5 3 3 3 4 5 7 5 4 4 3 4 3 3 3 4 4 5 3 2 5 3 3 4 3 3 5 2 1 2 4 3 6 3 4 8 2 6 8 7 8 9 7 7 7 8 16 19 19 18 17 17 17 17 16 16 16 16 17 17 17 17
9 7 6 7 5 5 6 4 2 2 4 6 4 4 2 3 5 3 2 4 4 4 2 3 4 5 4 5 5 5 5 5 4 4 4 3 3 3 4 4 4 5 4 5 5 4 1 1 2 4 1 2 2 3 5 4 5 5 7 6 6 9 9 8 8 9 9 8 7 12 18 20 19 18 18 19 18 17 17 17 17 17 17 18 18
8 7 5 5 5 5 7 4 2 3 3 5 5 5 5 3 3 3 2 4 4 1 3 6 6 4 4 3 4 4 3 4 5 3 3 3 3 4 4 3 4 5 5 3 5 5 5 5 3 3 5 4 4 1 1 6 6 5 5 4 5 7 8 9 9 9 7 8 8 8 17 18 19 18 18 18 19 18 18 18 18 18 18 17 17
8 9 6 5 4 5 7 6 6 5 5 4 3 3 2 3 4 2 2 3 2 3 4 4 4 3 3 4 4 4 4 4 4 3 4 4 4 3 4 4 5 4 5 4 4 5 4 4 5 5 5 5 5 3 2 2 5 5 3 3 5 5 8 9 10 9 8 8 7 7 10 18 18 17 17 17 17 18 18 17 17 17 17 17 17
8 11 7 5 7 4 6 8 5 2 2 4 4 3 3 2 3 3 3 1 2 4 4 4 4 3 4 4 3 3 4 3 3 5 3 4 3 4 3 3 4 3 3 3 3 4 4 5 2 2 5 4 4 6 6 7 5 6 7 7 4 4 7 7 9 9 9 8 7 6 6 9 16 17 17 16 16 16 16 16 16 16 15 15 15
7 9 11 9 7 7 7 5 3 5 3 3 3 3 1 5 3 3 2 3 3 4 3 4 4 4 4 3 3 4 4 5 3 4 3 4 3 3 3 4 4 2 2 5 4 4 0 3 2 3 3 4 4 6 7 5 4 4 3 3 7 6 6 5 6 7 9 7 6 7 6 7 8 15 16 15 16 15 15 15 15 15 14 14 14
9 7 7 7 6 5 5 4 4 6 5 3 4 3 4 4 3 3 2 3 5 4 3 3 4 4 4 3 4 4 4 3 4 4 4 3 3 3 3 4 4 4 2 4 4 5 4 2 2 1 3 3 3 2 3 3 4 6 7 3 5 2 3 3 5 6 7 6 5 6 7 6 5 6 7 14 14 13 13 13 14 14 14 14 13
8 9 9 8 6 5 4 5 3 3 3 4 2 2 5 4 3 2 2 5 3 2 3 3 3 4 4 4 4 4 4 3 4 3 4 3 4 4 4 3 3 4 5 4 3 5 5 5 3 4 5 6 6 6 6 4 3 4 5 6 6 5 6 4 4 6 7 6 6 6 5 5 6 6 6 5 9 12 12 12 12 13 14 13 13
9 9 7 7 7 6 6 5 5 5 4 3 2 2 3 4 3 4 4 3 2 2 3 3 3 3 4 5 4 4 4 4 3 3 3 3 4 3 2 2 3 3 3 5 3 4 3 5 5 1 1 4 4 5 5 5 5 5 4 6 7 7 6 5 6 6 6 5 5 5 5 5 4 3 5 5 4 6 12 11 11 13 13 12 12
9 9 8 7 8 7 5 5 5 3 2 4 3 4 4 5 4 3 4 2 2 2 2 3 4 5 5 4 4 4 4 4 3 3 3 3 3 3 3 2 2 2 2 4 4 3 3 4 6 4 3 4 5 6 4 4 3 4 6 6 6 6 6 7 5 3 6 5 4 5 4 3 3 6 4 5 5 3 8 11 11 12 12 12 11
8 9 8 7 7 5 4 5 4 4 3 3 3 3 4 5 3 3 2 3 2 3 3 4 4 4 4 4 4 4 3 4 3 3 3 3 3 3 3 3 3 3 1 3 4 3 3 3 4 6 4 5 5 4 4 4 4 4 4 4 4 5 4 4 4 5 5 4 3 4 4 3 5 4 3 5 5 3 3 5 10 10 11 11 9
7 8 8 8 6 5 5 4 5 4 2 5 2 4 5 3 3 3 2 1 4 3 3 3 3 4 4 5 4 4 4 3 3 3 4 4 3 3 2 3 3 4 4 3 3 3 2 2 3 3 5 6 5 5 6 4 5 4 5 5 4 3 2 2 3 3 4 3 3 2 5 4 3 4 3 4 5 3 3 2 2 3 3 9 8
7 7 9 9 6 6 5 5 6 3 3 3 4 4 3 4 3 2 2 2 3 2 3 4 5 3 4 4 4 3 4 3 3 3 3 3 3 3 3 3 3 3 5 4 4 3 3 2 2 2 2 3 3 3 4 4 5 4 3 4 3 2 2 1 2 4 2 4 4 4 4 4 4 3 4 3 3 3 3 3 4 5 1 4 7
8 8 8 8 9 8 5 6 6 3 4 4 4 5 3 3 4 3 3 2 2 3 4 4 4 4 6 4 2 4 4 3 4 4 3 3 3 3 3 4 4 3 2 3 3 2 2 2 2 3 2 2 3 3 3 3 4 2 1 1 0 1 1 1 2 1 4 6 3 2 2 3 4 3 4 0 2 5 3 5 5 4 4 2 3
7 8 6 9 7 8 6 7 6 4 4 6 6 5 5 4 2 4 3 3 3 3 3 4 3 4 5 3 4 2 4 4 4 4 4 4 4 4 4 2 3 3 3 2 2 2 2 2 2 1 3 3 4 5 6 5 3 4 3 1 1 2 2 2 1 4 5 4 5 3 3 2 1 4 2 3 1 1 5 5 4 4 3 5 3
9 7 8 7 8 5 5 6 6 5 4 5 4 4 4 4 3 3 3 3 2 4 5 4 2 4 4 4 4 5 4 4 4 3 4 3 3 3 3 4 3 2 2 2 3 3 2 2 2 1 2 3 3 3 4 3 3 3 3 5 3 3 1 2 4 2 2 3 3 2 3 5 1 1 4 4 3 3 2 4 3 3 2 2 4
10 9 9 8 7 6 5 6 6 6 5 4 2 5 6 4 2 3 3 3 4 4 3 3 4 5 4 4 3 3 4 5 5 6 5 4 3 3 3 3 2 2 2 2 2 2 2 2 3 5 7 2 3 4 4 3 3 4 2 1 3 4 3 2 2 3 3 1 0 3 2 2 3 1 2 3 5 3 0 4 2 4 2 0 2
10 8 9 8 8 9 6 7 7 6 5 5 2 5 4 3 4 4 4 4 3 3 3 2 2 2 4 4 4 4 4 5 4 4 5 3 2 2 2 3 4 4 2 2 2 1 3 2 3 3 3 3 4 2 3 3 2 1 1 2 1 1 2 1 4 1 3 4 4 4 1 0 2 2 0 3 4 3 2 2 2 5 3 2 1
11 10 10 9 8 9 9 6 7 5 6 6 4 4 3 5 3 5 5 3 3 4 3 3 2 2 5 4 4 4 5 3 4 4 4 2 2 2 3 4 3 3 4 4 2 2 3 3 3 1 2 3 1 3 2 1 1 0 2 1 3 1 0 3 1 1 2 1 3 3 4 4 1 1 2 4 2 3 3 2 3 6 3 3 3
9 10 11 8 11 10 8 7 5 4 3 7 6 4 4 3 4 6 4 4 4 2 3 3 4 5 5 5 2 2 4 3 2 4 2 3 2 2 1 2 4 3 2 3 4 4 4 5 4 5 4 4 3 2 2 2 1 3 2 1 0 1 2 1 1 1 1 2 2 2 5 4 4 2 1 2 3 3 3 1 4 1 4 2 1
9 12 10 9 9 10 9 7 6 6 5 6 7 5 4 3 4 5 4 4 4 2 3 2 4 4 3 4 4 2 3 3 3 2 3 2 2 2 2 2 2 3 3 4 4 5 4 3 4 4 4 4 4 4 3 5 1 1 1 3 2 2 2 1 0 1 2 2 2 4 3 4 5 3 2 0 3 3 6 0 2 2 3 0 1
10 8 11 9 9 11 9 8 7 7 8 7 7 7 5 5 5 4 5 3 4 3 2 3 3 3 2 4 4 4 2 2 2 3 2 2 2 3 2 2 3 3 4 4 3 4 4 3 3 3 3 4 4 3 4 4 4 3 3 4 5 5 2 3 6 4 2 2 1 3 2 4 1 3 3 1 3 4 5 4 3 4 2 1 0
9 8 10 9 10 8 10 9 9 6 8 8 8 9 8 6 5 5 5 4 4 4 3 3 4 2 3 2 3 4 4 2 2 2 2 2 2 2 3 4 4 4 4 3 3 3 3 3 3 3 3 3 3 3 3 4 3 3 3 3 2 4 4 4 3 5 3 3 2 4 4 2 1 2 1 3 1 2 3 5 4 3 3 1 1
9 10 10 10 10 9 11 10 9 7 7 9 8 9 8 7 6 6 6 6 7 5 4 5 5 3 4 4 2 2 3 4 3 0 2 3 2 2 2 4 2 1 2 3 2 3 3 3 3 3 3 3 2 3 3 3 3 4 4 4 4 4 2 2 2 3 3 2 3 4 5 4 4 1 4 3 2 2 2 4 3 1 3 2 1
Wind_Direction
78 100 102 96 87 83 85 86 86 82 81 78 66 63 61 62 72 72 67 63 64 62 63 62 62 61 60 61 58 56 57 57 56 56 55 50 47 48 54 52 45 41 45 51 44 49 51 50 50 52 47 48 48 49 51 49 49 46 45 45 43 44 41 43 51 59 61 69 68 62 57 55 59 60 57 52 49 48 45 40 68 69 65 58 59
108 103 101 97 91 88 88 87 84 81 79 74 65 58 52 49 74 73 69 67 62 65 64 62 63 61 62 62 61 60 59 56 58 57 55 53 51 49 49 51 51 54 48 51 48 45 47 45 45 47 46 45 46 48 48 47 47 47 47 47 46 41 39 35 49 55 62 67 63 60 59 57 61 61 56 52 50 48 49 48 64 66 54 64 58
122 110 98 94 92 90 86 84 87 86 79 69 63 61 52 36 61 75 74 71 69 70 67 66 64 64 64 63 61 60 58 58 58 57 56 52 51 51 49 49 50 47 45 47 48 48 44 42 43 43 45 46 46 46 44 45 46 48 48 47 48 48 37 40 47 52 53 60 55 36 37 56 60 61 59 57 55 53 54 57 57 60 56 51 51
116 106 105 103 94 91 89 89 85 88 85 78 71 62 54 41 68 80 82 77 75 71 69 67 65 64 63 62 61 60 60 60 57 56 54 53 51 49 50 49 48 49 47 49 50 48 48 44 44 46 46 48 47 45 43 43 47 47 43 41 42 44 31 32 39 36 50 59 56 38 40 8 56 60 63 62 59 59 59 58 58 61 57 49 48
78 77 95 108 100 93 89 89 87 85 90 90 89 79 63 49 76 85 81 79 76 71 70 66 64 62 62 62 63 61 60 58 57 54 53 51 49 49 47 47 46 47 51 53 49 47 45 44 45 46 46 45 43 39 41 42 45 41 33 33 32 29 23 21 34 39 43 68 86 116 12 42 57 56 63 63 63 62 62 62 62 62 60 57 50
91 101 101 104 102 95 91 87 87 87 87 96 105 105 93 70 87 86 84 79 73 70 66 66 64 62 61 63 61 60 59 57 56 56 52 51 49 50 51 49 48 50 52 53 51 45 49 49 48 45 43 43 40 39 40 41 41 36 30 28 30 30 32 30 36 32 29 70 86 83 144 204 78 56 63 65 62 65 64 61 60 60 69 64 56
111 127 125 111 101 93 90 89 87 85 86 83 92 102 107 95 87 81 77 74 71 70 70 71 68 66 66 65 62 60 57 57 56 56 57 52 50 49 49 51 51 52 56 56 53 54 51 52 50 47 44 42 40 40 40 39 37 32 29 35 34 45 33 38 44 45 50 76 84 64 119 81 87 74 63 63 63 66 62 60 60 66 66 63 60
116 112 113 104 96 88 84 88 88 89 93 91 85 81 80 86 84 81 79 76 75 76 78 75 74 72 71 66 63 61 59 57 58 58 57 56 53 49 48 48 51 53 54 54 53 52 53 53 54 51 48 45 43 41 41 39 35 29 34 42 42 44 40 41 59 82 57 48 49 48 47 49 81 69 62 61 63 66 68 63 60 60 61 59 56
113 112 100 95 93 90 88 88 86 95 95 94 90 83 77 74 73 75 76 79 80 81 79 76 75 74 70 67 66 64 61 61 59 58 57 56 54 51 48 48 49 51 51 54 55 56 57 57 57 57 54 49 46 43 44 41 34 33 42 48 42 41 43 36 59 69 52 73 21 51 56 67 73 73 66 63 62 61 58 59 56 57 60 60 57
107 106 106 102 100 98 99 93 104 101 93 84 85 84 83 80 79 80 82 82 80 79 75 76 76 74 70 69 69 68 65 62 60 57 56 57 55 52 49 46 46 45 46 48 52 55 59 60 59 59 56 51 44 44 45 42 35 42 49 48 37 43 64 12 37 56 84 71 50 52 62 69 68 65 64 65 61 60 60 63 66 65 66 63 59
118 106 102 100 102 106 101 100 108 108 102 104 97 94 91 87 86 86 86 83 83 79 79 79 77 74 73 72 70 68 65 63 60 57 57 56 56 54 51 49 44 42 40 39 41 43 48 54 56 56 55 49 44 46 47 44 37 47 56 48 38 40 57 29 47 44 41 69 71 63 66 65 64 53 59 53 52 55 56 60 66 63 62 63 62
106 105 103 101 101 108 111 111 111 106 106 101 97 95 92 89 89 88 87 86 83 83 82 81 80 76 75 73 69 68 65 63 60 59 56 55 55 54 54 51 47 44 42 38 35 35 36 39 50 49 50 46 44 46 50 45 42 50 58 45 39 38 44 71 79 41 35 67 67 69 64 66 61 61 64 69 76 67 64 62 62 65 63 64 65
103 107 108 103 97 99 104 106 107 105 102 97 91 88 87 85 81 84 85 84 84 86 86 84 79 77 74 72 70 68 66 63 60 57 55 52 50 50 50 48 46 44 43 41 40 37 38 39 37 49 49 44 41 44 50 49 48 55 61 56 37 26 25 103 106 77 59 34 75 77 70 58 63 62 64 67 67 69 68 68 71 64 63 66 62
112 114 113 108 105 100 100 99 97 97 93 91 92 89 90 91 93 87 86 86 86 88 89 87 83 78 76 74 71 69 66 62 59 55 52 49 47 46 45 43 43 43 42 41 39 42 41 42 49 53 50 48 39 43 43 52 54 62 64 59 43 39 24 74 88 87 93 82 62 63 61 59 55 59 60 62 64 65 64 66 64 66 63 64 65
117 108 109 116 114 112 102 96 97 95 96 99 96 98 98 97 92 86 86 87 89 91 91 88 85 84 80 75 72 68 63 61 58 55 51 47 45 43 41 40 41 41 40 40 40 40 45 46 50 69 72 48 47 44 42 42 55 66 71 62 43 42 15 69 77 72 69 61 58 63 62 60 60 56 56 58 53 58 59 61 67 70 71 64 60
114 112 115 99 105 107 107 104 100 99 100 101 103 104 100 95 89 85 88 89 90 93 92 92 88 83 80 77 73 69 63 60 56 53 50 46 45 42 39 38 38 38 39 39 40 42 45 50 52 70 90 76 48 42 40 33 46 78 89 86 66 55 32 39 54 61 64 74 66 62 58 53 61 65 68 68 68 64 63 64 63 59 60 65 66
122 117 80 97 115 116 108 104 110 108 106 108 107 106 102 96 85 90 91 93 88 86 87 87 88 86 82 84 83 78 74 66 61 53 47 46 43 41 38 36 33 34 37 38 39 42 45 51 59 70 91 98 66 48 38 26 18 58 110 114 101 133 86 36 91 84 66 62 62 56 58 53 63 64 66 68 67 69 69 70 66 68 68 63 59
108 95 106 111 121 118 110 116 118 117 118 113 112 108 104 104 102 97 98 96 96 93 94 97 91 91 95 100 100 95 90 81 72 60 50 43 46 43 38 35 30 26 30 36 41 45 47 50 65 76 96 119 107 70 26 8 359 355 43 98 97 88 70 96 91 84 80 70 64 64 61 67 67 69 71 70 69 67 65 66 70 64 67 67 67
83 85 124 137 126 137 124 121 121 118 111 115 116 105 103 102 102 101 98 98 102 107 104 105 110 115 123 118 108 109 109 95 81 70 58 47 37 42 36 33 30 24 22 28 36 47 53 56 73 84 106 126 127 89 62 358 336 342 356 78 98 88 85 81 67 65 70 72 68 64 69 69 68 67 68 68 69 70 70 71 68 68 67 67 66
110 109 74 68 81 99 100 104 109 111 113 106 104 111 112 106 100 101 105 111 118 130 136 132 141 143 142 142 157 166 124 96 64 78 63 56 51 42 31 34 24 24 16 19 24 51 52 57 74 107 124 133 118 107 69 299 321 339 349 20 44 96 72 66 73 77 73 74 75 71 72 71 70 69 68 68 68 66 64 63 65 67 67 68 67
101 93 103 118 106 97 84 83 98 114 122 125 131 115 121 119 120 128 137 142 141 146 157 161 152 157 153 164 208 42 64 37 44 359 91 83 74 58 47 21 19 7 355 351 11 31 55 60 83 105 135 130 115 127 215 342 340 344 336 353 337 75 74 73 67 70 71 71 78 79 76 74 73 72 72 71 70 69 67 66 66 67 67 67 67
109 104 102 123 105 97 100 116 148 148 113 109 118 130 145 144 151 162 154 161 171 165 176 186 180 177 199 7 21 33 28 107 37 347 316 114 106 133 71 8 18 347 335 312 297 237 169 146 150 145 142 139 148 145 144 268 319 318 330 329 87 107 86 82 81 76 75 76 79 83 82 80 77 74 73 73 71 69 69 67 68 68 67 67 67
104 111 118 119 103 120 123 141 206 182 172 158 161 164 173 177 153 161 162 181 193 175 121 15 33 29 50 8 43 354 335 67 53 281 252 259 152 168 133 200 228 240 293 306 291 280 222 210 165 161 161 162 176 121 155 163 166 225 249 252 73 71 85 82 80 85 82 80 75 80 79 76 74 73 71 70 70 70 69 69 69 69 70 68 67
131 129 120 90 75 341 142 148 190 199 163 148 147 175 178 143 135 167 154 177 267 92 88 43 24 352 93 33 61 349 333 77 5 331 343 170 206 191 190 198 242 221 249 235 258 275 237 227 216 170 187 192 138 166 175 114 62 352 286 93 83 96 90 86 82 78 81 82 81 83 81 77 76 75 70 68 66 66 66 63 60 59 63 67 68
122 115 120 132 128 193 176 180 185 128 137 174 199 134 94 53 39 35 1 69 47 18 62 78 37 14 357 105 112 265 357 56 27 336 348 337 335 185 173 208 228 344 339 163 207 220 230 219 221 183 173 196 151 147 165 136 141 326 70 78 81 65 83 81 78 76 71 63 79 86 80 73 66 64 66 68 70 68 65 64 63 64 65 65 66
126 118 120 129 146 145 147 218 153 136 189 199 56 42 22 65 65 22 343 106 96 91 72 64 46 360 357 353 110 89 4 97 85 6 355 360 358 350 31 341 93 25 338 5 337 321 202 218 238 170 179 208 160 171 180 159 131 195 100 87 83 89 92 81 69 72 68 64 71 79 79 76 70 67 66 64 63 61 66 66 64 65 65 67 66
120 123 128 106 129 154 191 161 138 185 175 121 130 91 86 53 30 307 66 352 44 71 65 68 48 8 3 346 357 45 39 18 40 59 15 7 9 358 339 332 17 73 338 357 333 359 359 342 339 337 105 114 141 161 187 122 156 120 117 110 124 97 84 95 98 90 73 66 64 75 81 77 72 70 68 67 66 66 65 65 65 65 66 66 68
124 138 136 129 164 153 153 135 137 212 238 71 75 95 56 20 94 5 57 58 59 53 65 94 119 37 13 20 14 17 20 23 360 40 27 19 359 7 347 4 360 49 16 346 10 355 355 337 319 332 1 137 186 87 67 97 92 88 79 95 134 116 118 112 108 91 83 70 63 68 72 74 72 71 70 68 67 67 64 64 65 64 64 65 65
126 129 128 136 171 149 155 143 139 82 53 29 48 44 65 81 24 36 43 68 63 88 114 106 87 72 31 24 21 33 15 8 3 7 63 5 10 5 9 19 1 1 15 2 346 330 320 288 313 301 219 117 16 86 113 115 103 95 129 182 138 134 130 125 110 109 108 92 70 68 69 73 72 71 70 69 68 66 65 63 61 62 63 65 65
131 125 136 125 132 159 125 138 90 45 60 106 73 28 351 113 82 55 330 63 59 90 93 68 50 51 41 41 49 14 49 27 345 12 19 23 13 360 6 35 28 1 359 32 327 340 339 356 349 359 8 42 71 28 154 121 119 136 153 164 155 139 144 121 115 114 102 103 97 79 76 73 71 68 67 67 67 66 66 64 62 62 62 63 63
136 139 143 143 171 175 140 141 90 71 64 76 78 73 26 40 117 124 63 88 164 84 62 62 84 84 98 57 35 26 13 47 355 338 58 22 14 13 18 1 29 24 2 356 349 321 354 6 25 355 12 20 17 324 60 59 126 150 170 176 137 143 129 119 125 120 117 119 120 108 90 85 81 74 68 66 64 63 63 61 60 58 57 56 55
147 135 134 166 198 146 95 89 93 149 127 30 79 134 153 70 81 85 82 124 205 83 71 72 75 61 45 47 28 53 24 30 25 343 66 53 24 358 28 10 23 23 6 321 321 316 38 358 20 51 6 25 17 358 41 34 26 50 52 19 39 68 74 124 134 127 129 129 122 110 100 92 87 83 77 71 65 63 60 59 58 57 56 53 53
138 140 147 159 118 98 112 105 89 61 31 90 109 93 60 96 75 99 176 195 83 109 125 116 108 81 48 49 41 42 47 8 35 357 355 75 39 8 27 20 5 7 24 326 312 303 118 147 31 19 36 22 36 20 34 18 37 13 46 56 56 39 50 44 61 117 132 127 116 121 123 107 92 86 86 79 74 68 63 61 59 57 54 52 49
139 128 133 133 119 121 113 130 78 71 59 48 352 101 93 100 113 104 220 69 66 65 64 104 128 120 93 60 54 40 35 50 23 354 341 70 71 29 31 24 351 342 28 338 332 346 356 355 107 167 127 131 113 109 98 67 24 27 13 10 73 56 117 67 78 68 57 79 108 128 130 128 113 108 94 87 85 76 72 68 64 60 54 51 47
128 137 142 140 129 117 99 83 126 142 139 88 99 93 126 112 129 177 71 72 91 101 108 105 103 90 90 70 51 52 36 41 35 357 339 28 65 58 33 15 358 12 356 329 301 27 4 349 8 54 29 46 48 34 42 30 68 53 21 17 34 53 22 53 89 75 72 62 53 48 61 89 125 135 116 114 85 84 80 74 71 66 62 53 48
133 140 139 125 119 113 110 124 94 89 91 142 137 176 90 110 88 64 62 63 42 87 76 57 52 72 91 88 63 47 62 22 39 6 353 30 51 60 51 26 27 28 337 314 18 49 20 357 336 3 44 85 86 56 38 34 36 52 51 31 23 14 33 29 43 74 83 90 88 79 62 59 63 64 98 106 98 98 93 87 81 78 71 63 53
143 148 144 135 129 129 124 108 98 91 127 113 137 90 109 107 97 64 82 101 157 192 103 72 64 53 36 52 71 69 67 45 25 5 3 32 44 61 18 34 44 38 343 348 25 41 24 358 350 5 54 106 109 110 103 100 78 55 41 38 40 25 31 10 28 63 124 123 125 115 114 126 122 97 65 94 118 100 103 103 92 88 85 76 61
149 139 133 135 120 134 126 111 109 123 134 106 133 143 94 96 97 127 161 185 156 72 82 81 72 80 80 40 41 57 55 74 42 17 355 49 50 34 47 36 27 354 41 41 26 30 31 17 12 1 10 78 87 117 129 140 119 92 67 62 38 43 30 28 17 24 36 75 90 107 110 105 73 54 84 91 64 68 103 93 103 94 92 86 84
139 140 138 128 132 126 106 112 108 105 158 136 166 92 101 75 99 127 144 112 67 57 59 87 89 92 77 82 69 46 38 48 68 53 15 26 53 35 20 71 50 11 354 95 71 39 40 42 39 28 26 48 49 46 46 37 63 80 121 136 145 115 133 162 132 100 59 39 5 51 108 59 74 95 68 92 110 87 66 126 182 116 100 110 101
141 144 138 131 131 110 119 120 114 166 136 129 109 112 109 143 147 150 144 81 92 92 78 61 38 35 91 98 100 83 62 37 55 53 55 36 44 36 23 34 62 46 19 28 37 27 31 35 37 68 67 72 65 70 66 69 66 56 43 29 14 104 111 190 110 101 96 70 34 16 42 105 93 66 76 74 103 89 108 59 38 28 68 118 102
160 152 146 138 130 135 148 131 126 175 145 147 148 140 163 167 154 147 116 85 78 90 79 85 80 53 30 42 47 114 93 81 57 31 38 49 50 50 48 49 38 57 59 41 26 59 57 28 14 358 77 97 101 106 87 101 90 59 10 91 297 11 76 292 84 69 88 94 69 34 17 129 137 133 98 97 136 141 124 102 63 30 11 357 131
169 149 145 139 150 143 145 128 127 194 166 181 162 165 167 164 173 139 138 133 156 149 117 98 87 86 95 41 5 42 113 114 104 90 43 41 32 32 27 46 78 49 50 60 73 39 28 14 326 14 33 59 36 38 51 10 174 170 147 150 27 335 18 316 186 142 142 144 150 173 145 56 63 109 153 171 100 98 107 104 96 71 13 350 349
146 154 143 144 134 132 119 125 137 200 184 206 165 145 134 138 156 147 141 139 131 74 80 83 84 90 90 88 59 21 29 66 80 80 80 44 48 48 43 27 31 51 71 65 44 35 10 341 314 107 123 68 115 65 51 47 345 322 185 143 173 156 325 337 336 35 115 139 155 118 158 142 72 116 157 133 99 46 68 65 95 82 39 355 338
151 170 158 136 140 129 139 142 156 201 175 210 95 117 125 155 130 127 101 120 98 107 112 128 129 113 80 71 75 89 56 39 51 75 59 45 27 60 46 13 42 76 39 40 101 71 360 351 12 31 8 192 85 48 22 40 10 12 9 330 171 167 144 241 197 185 129 186 124 122 29 108 125 132 175 105 123 123 181 126 151 129 131 205 271
171 167 148 148 153 145 161 155 163 213 147 185 169 122 143 140 113 106 83 83 121 135 154 122 70 85 105 99 83 54 64 75 41 56 83 66 28 38 100 73 21 6 28 48 27 109 108 88 62 50 27 18 80 85 41 2 53 35 19 317 295 131 18 82 170 249 193 170 167 132 119 4 82 126 356 96 134 121 71 154 151 135 169 199 220
174 161 146 170 142 153 166 158 159 219 156 174 148 127 116 118 123 113 137 161 154 165 163 135 152 73 94 80 53 67 63 71 86 56 60 69 83 52 52 86 55 23 11 9 10 18 55 73 40 63 75 21 122 118 99 343 129 209 134 170 162 139 254 280 332 170 298 284 140 134 160 158 163 113 170 123 67 91 85 343 175 146 184 174 190
169 164 154 169 149 158 160 157 162 180 171 155 137 122 117 143 148 144 175 186 151 199 113 131 129 118 99 97 65 51 92 76 77 111 95 94 86 40 20 117 128 111 54 18 18 36 46 38 20 25 24 16 0 86 121 145 358 10 11 86 229 243 150 82 11 321 190 291 353 164 151 168 153 155 79 102 109 120 113 34 300 162 152 172 145
170 166 160 161 152 150 156 160 158 159 194 133 145 139 150 183 162 179 182 184 161 132 131 100 93 94 119 125 137 102 77 81 62 58 104 88 76 116 79 14 92 93 85 65 43 26 46 53 25 33 33 27 21 32 45 16 95 103 3 340 291 191 55 345 62 25 228 220 245 306 155 147 152 142 131 29 135 160 131 157 303 300 129 101 207
179 174 148 158 153 158 158 167 169 171 178 153 160 157 173 187 184 197 166 190 136 165 158 135 118 110 102 64 77 103 63 24 84 107 82 81 115 89 78 45 37 83 93 68 64 65 54 53 49 40 51 42 22 27 49 29 23 36 10 356 358 353 56 63 8 340 343 340 266 202 146 179 121 119 129 213 172 169 146 153 212 255 160 165 238
157 153 145 158 155 158 158 179 163 180 161 171 164 161 180 190 190 209 176 153 158 185 161 141 114 144 132 121 177 148 129 157 65 45 71 52 27 73 85 72 59 55 67 85 79 61 61 69 64 71 72 60 45 45 52 42 27 4 44 6 27 1 13 27 21 357 346 14 359 330 5 14 1 167 198 206 247 141 133 167 213 213 125 170 212
158 157 151 167 161 166 161 175 165 175 168 168 173 168 177 192 203 198 183 163 179 186 161 154 130 197 153 148 232 172 126 105 108 332 101 86 51 34 91 106 87 158 118 114 106 108 92 71 65 51 57 76 74 66 57 65 40 25 32 24 22 66 24 39 53 8 6 11 355 349 335 6 334 122 227 189 213 131 173 182 217 172 144 162 216